| time (UTC) | temp F | wind direction | speed MPH | gust MPH | rain 1hr in | rain 24hr in | rain mn in | humidity % | barometer mb |
| 20260505175114 | 58 | 114 | 0.0 | 10.0 | 0.00 | 0.00 | 0.00 | 82 | 1000.8 |
| 20260505172114 | 58 | 201 | 6.0 | 10.0 | 0.00 | 0.00 | 0.00 | 83 | 1000.5 |
| 20260505165116 | 60 | 208 | 0.0 | 10.0 | 0.00 | 0.00 | 0.00 | 82 | 999.6 |
| 20260505152115 | 73 | 210 | 0.0 | 10.0 | 0.00 | 0.00 | 0.00 | 77 | 996.8 |
| 20260505075215 | 70 | 318 | 3.0 | 10.0 | 0.00 | 0.00 | 0.00 | 79 | 994.3 |
| 20260505075113 | 70 | 318 | 3.0 | 10.0 | 0.00 | 0.00 | 0.00 | 79 | 994.3 |
| 20260505072200 | 70 | 347 | 1.0 | 10.0 | 0.00 | 0.00 | 0.00 | 79 | 994.7 |
| 20260505072115 | 70 | 347 | 1.0 | 10.0 | 0.00 | 0.00 | 0.00 | 79 | 994.7 |
| 20260505065112 | 71 | 45 | 0.0 | 10.0 | 0.00 | 0.00 | 0.00 | 78 | 995.1 |
| 20260505062112 | 71 | 303 | 1.0 | 10.0 | 0.00 | 0.00 | 0.00 | 78 | 995.4 |
| 20260505055113 | 71 | 1 | 3.0 | 10.0 | 0.00 | 0.00 | 0.00 | 78 | 995.7 |
| 20260505052113 | 71 | 16 | 0.0 | 10.0 | 0.00 | 0.00 | 0.00 | 77 | 995.8 |
| 20260505035113 | 72 | 331 | 2.0 | 10.0 | 0.00 | 0.00 | 0.00 | 73 | 996.3 |
| 20260505025113 | 74 | 343 | 3.0 | 10.0 | 0.00 | 0.00 | 0.00 | 70 | 996.2 |
| 20260505015112 | 75 | 350 | 0.0 | 10.0 | 0.00 | 0.00 | 0.00 | 67 | 996.0 |
| 20260505005113 | 78 | 16 | 2.0 | 10.0 | 0.00 | 0.00 | 0.00 | 64 | 996.1 |
| 20260505002115 | 78 | 312 | 1.0 | 10.0 | 0.00 | 0.00 | 0.00 | 62 | 996.2 |
| 20260504235112 | 80 | 26 | 2.0 | 10.0 | 0.00 | 0.00 | 0.00 | 59 | 996.5 |
| 20260504232113 | 80 | 90 | 1.0 | 10.0 | 0.00 | 0.00 | 0.00 | 59 | 996.8 |
| 20260504225113 | 80 | 21 | 4.0 | 10.0 | 0.00 | 0.00 | 0.00 | 58 | 997.2 |
| 20260504222114 | 81 | 351 | 9.0 | 10.0 | 0.00 | 0.00 | 0.00 | 57 | 997.3 |
| 20260504212113 | 81 | 353 | 2.0 | 10.0 | 0.00 | 0.00 | 0.00 | 55 | 998.1 |
| 20260504205113 | 82 | 35 | 5.0 | 10.0 | 0.00 | 0.00 | 0.00 | 52 | 998.5 |
| 20260504202114 | 82 | 257 | 0.0 | 10.0 | 0.00 | 0.00 | 0.00 | 52 | 998.7 |
| 20260504192112 | 81 | 317 | 3.0 | 10.0 | 0.00 | 0.00 | 0.00 | 50 | 999.9 |